Regional Weather Roundup
Issued by NWS Spokane, WA

Home | Current Version | Previous Version | Text Only | Print | Product List | Glossary On
Versions: 1 2 3 4 5 6 7 8 9 10 11 12 13 14 15 16 17 18 19 20 21 22 23 24 25 26 27 28 29 30 31 32 33 34 35 36 37 38 39 40 41 42 43 44 45 46 47 48 49 50
000
NZUS01 KOTX 231910
RWROTX
EASTERN WASHINGTON/NORTHERN IDAHO ROUNDUP
NATIONAL WEATHER SERVICE, SPOKANE WA
1200 PM PDT SAT JUL 23 2016

Note: "fair" indicated few or no clouds below 12,000 feet with no
significant weather and/or obstructions to visibility.

...NORTHEAST WASHINGTON AND NORTHERN IDAHO PANHANDLE...

CITY           SKY/WX    TMP DP  RH WIND       PRES   REMARKS
SPOKANE INTL   MOSUNNY   69  43  38 VRB3      30.19S
SPOKANE DOWNTO MOSUNNY   68  46  45 VRB3      30.19S
COEUR D ALENE  MOSUNNY   68  50  52 SW8       30.17F
DEER PARK      SUNNY     69  48  47 S8        30.19F
SANDPOINT      MOSUNNY   68  52  56 SW8       30.19F
BONNERS FERRY    N/A     68  52  56 S7G18     30.16F

...SOUTHEAST WASHINGTON AND SOUTHERN IDAHO PANHANDLE...

CITY           SKY/WX    TMP DP  RH WIND       PRES   REMARKS
WALLA WALLA    SUNNY     73  44  35 VRB7      30.17F
PULLMAN/MOSCOW SUNNY     70  46  42 SW5       30.21F
LEWISTON       SUNNY     77  46  33 VRB5      30.15F
LOWELL           N/A     79  49  34 VRB3      30.12F

...COLUMBIA BASIN...

CITY           SKY/WX    TMP DP  RH WIND       PRES   REMARKS
EPHRATA        SUNNY     76  44  32 VRB6G18   30.14F
MOSES LAKE     SUNNY     76  44  32 VRB6      30.15F
TRI CITIES     SUNNY     77  46  33 SW9       30.15F
HERMISTON      SUNNY     76  48  37 NW8       30.15F
PENDLETON      SUNNY     75  43  31 W13G21    30.17F

...EAST SLOPES CASCADES...

CITY           SKY/WX    TMP DP  RH WIND       PRES   REMARKS
THE DALLES     SUNNY     75  50  41 NW18G25   30.15F
YAKIMA         SUNNY     77  44  30 VRB5      30.15F
ELLENSBURG     SUNNY     75  47  36 W8        30.16F
STAMPEDE PASS  PTSUNNY   53  46  77 VRB5      30.28S
WENATCHEE      SUNNY     74  44  34 CALM      30.13F
OMAK           SUNNY     75  40  28 CALM      30.12F

...SOUTHERN BRITISH COLUMBIA...

CITY           SKY/WX    TMP DP  RH WIND       PRES   REMARKS
PENTICTON      PTSUNNY   75  48  38 N8        30.12F
CASTLEGAR      PTSUNNY   73  54  49 S10       30.12F
CRANBROOK      PTSUNNY   73  48  40 S9        30.09F

...WESTERN MONTANA...

CITY           SKY/WX    TMP DP  RH WIND       PRES   REMARKS
MISSOULA       PTSUNNY   73  44  35 E6        30.16F

...NEIGHBORING CITIES...

CITY           SKY/WX    TMP DP  RH WIND       PRES   REMARKS
SEATTLE        PTSUNNY   64  55  72 CALM      30.28F
CALGARY        PTSUNNY   70  50  49 S5        29.99S



USA.gov is the U.S. government's official web portal to all federal, state and local government web resources and services.